Regional Weather Roundup
Issued by NWS

Home | Current Version | Previous Version | Text Only | Print | Product List | Glossary Off
Versions: 1 2 3 4 5 6 7 8 9 10 11 12 13 14 15 16 17 18 19 20 21 22 23 24 25 26 27 28 29 30 31 32 33 34 35 36 37 38 39 40 41 42 43 44 45 46 47 48 49 50

000
ASUS45 KCYS 221610
RWRWY

WYOMING REGIONAL WEATHER ROUNDUP
NATIONAL WEATHER SERVICE CHEYENNE WY
1000 AM MDT MON SEP 22 2014

NOTE:  "FAIR" INDICATES FEW OR NO CLOUDS BELOW 12,000 FEET
WITH NO SIGNIFICANT WEATHER AND/OR OBSTRUCTIONS TO VISIBILITY.

WYZ001-221700-
YELLOWSTONE NATIONAL PARK

CITY           SKY/WX    TMP DP  RH WIND       PRES   REMARKS
LK YELLOWSTONE   N/A     51  47  86 CALM      30.29S
W YELLOWSTONE  NOT AVBL

$$
WYZ002>013-054>058-071-098>099-221700-
NORTHERN WYOMING

CITY           SKY/WX    TMP DP  RH WIND       PRES   REMARKS
JACKSON        CLOUDY    52  52 100 SW7       30.24R
CODY           PTSUNNY   64  45  48 SW6G25    30.07R
GREYBULL       PTSUNNY   66  50  56 S8        30.01S
WORLAND        PTSUNNY   65  50  58 CALM      30.03R
SHERIDAN       SUNNY     64  48  56 CALM      29.99S
BUFFALO        SUNNY     69  48  47 SE10      30.03S
GILLETTE       MOSUNNY   67  44  43 S16       30.04S
HULETT         FAIR      70  43  37 MISG      30.06
NEWCASTLE      FAIR      68  41  37 MISG      30.10

$$
WYZ014>020-022>026-101>103-221700-
CENTRAL WYOMING

CITY           SKY/WX    TMP DP  RH WIND       PRES   REMARKS
BIG PINEY      CLOUDY    51  45  79 CALM      30.28R
PINEDALE       LGT RAIN  50  50 100 NE3       30.29R
DUBOIS         FAIR      55  43  62 N14       30.22S
LANDER         LGT RAIN  58  48  69 E3        30.13R
RIVERTON       CLOUDY    65  44  46 NW13      30.13S
CASPER         MOSUNNY   69  48  47 SW21      30.12S
DOUGLAS        MOSUNNY   64  44  48 S3        30.12F

$$
WYZ021-027>030-104>119-221700-
SOUTHERN WYOMING

CITY           SKY/WX    TMP DP  RH WIND       PRES   REMARKS
EVANSTON       SUNNY     54  49  83 SW12      30.30R
KEMMERER       CLOUDY    52  50  93 W6        30.30R
FORT BRIDGER     N/A     55  52  90 S3        30.32R
ROCK SPRINGS   FOG       50  50 100 W3        30.29R VSB 1/4
DIXON          RAIN      54  50  89 S7        30.35R
RAWLINS        PTSUNNY   57  47  69 SW20G32   30.26R
SARATOGA       TSTM      52  48  87 SW21G35   30.29R
LARAMIE        MOSUNNY   65  44  46 S10       30.27R
CHEYENNE       PTSUNNY   61  52  72 SW5       30.21F
TORRINGTON     CLOUDY    62  46  55 SE10      30.11F
PINE BLUFFS    FAIR      54  52  94 CALM      30.19F

$$


USA.gov is the U.S. government's official web portal to all federal, state and local government web resources and services.